Change the Weather History Date:

Saturday, May 11, 2013

  Actual Average Record
Temperature  
Mean Temperature 86 °F -  
Max Temperature 96 °F 92 °F 96 °F (1998)
Min Temperature 76 °F 78 °F 75 °F (2014)
Cooling Degree Days 21    
Growing Degree Days 36 (Base 50)    
Moisture  
Dew Point 75 °F    
Average Humidity 73    
Maximum Humidity 89    
Minimum Humidity 38    
Precipitation  
Precipitation 0.00 in 0.03 in - ()
Sea Level Pressure  
Sea Level Pressure 29.93 in    
Wind  
Wind Speed 13 mph ()    
Max Wind Speed 25 mph    
Max Gust Speed -    
Visibility 8.1 miles    
Events      
Averages and records for this station are not official NWS values.
T = Trace of Precipitation, MM = Missing Value Source: Averaged Metar Reports

Daily Weather History Graph

Daily Weather History Graph

Search for Another Location

Airport or City:

Trip Planner

Search our weather history database for the weather conditions in past years. The results will help you decide how hot, cold, wet, or windy it might be!

Date:

Astronomy

May. 11, 2013 Rise Set
Actual Time 5:46 AM VET 6:23 PM VET
Civil Twilight 5:24 AM VET 6:46 PM VET
Nautical Twilight 4:58 AM VET 7:12 PM VET
Astronomical Twilight 4:31 AM VET 7:38 PM VET
Moon 6:57 AM VET (5/11) 7:55 PM VET (5/11)
Length of Visible Light 13h 21m
Length of Day
12h 37m
Waxing Crescent, 3% of the Moon is Illuminated
May 11
Waxing Crescent
May 18
First Quarter
May 24
Full
May 31
Last Quarter
Jun 8
New

Hourly Weather History & Observations

Time (VET) Temp. Heat Index Dew Point Humidity Pressure Visibility Wind Dir Wind Speed Gust Speed Precip Events Conditions
1:30 AM 82 °F - 78 °F 83% 29.95 in 6 mi Calm Calm - -   Scattered Clouds
1:30 AM 82.4 °F 90.9 °F 77.0 °F 84% 29.95 in - North - - N/A   Partly Cloudy
4:30 AM 80.6 °F 87.1 °F 77.0 °F 89% 29.92 in - North - - N/A   Unknown
5:30 AM 80.6 °F 87.1 °F 77.0 °F 89% 29.92 in - North - - N/A   Partly Cloudy
6:30 AM 80.6 °F 87.1 °F 77.0 °F 89% 29.95 in - North - - N/A   Partly Cloudy
7:30 AM 81 °F - 76 °F 80% 29.95 in 12 mi Calm Calm - -   Scattered Clouds
7:30 AM 80.6 °F 86.2 °F 75.2 °F 84% 29.95 in - North - - N/A   Partly Cloudy
8:30 AM 84.2 °F 92.3 °F 75.2 °F 74% 29.95 in - North - - N/A   Mostly Cloudy
9:30 AM 87.8 °F 97.6 °F 75.2 °F 66% 29.95 in - North - - N/A   Mostly Cloudy
10:30 AM - - - N/A% 29.92 in 6.2 mi East 17.3 mph - N/A   Scattered Clouds
11:30 AM - - - N/A% 29.92 in 6.2 mi ESE 25.3 mph - N/A   Scattered Clouds
12:30 PM 95.0 °F 104.5 °F 73.4 °F 49% 29.95 in - North - - N/A   Partly Cloudy
1:30 PM 96 °F - 73 °F 38% 29.94 in 12 mi Calm Calm - -   Scattered Clouds
3:30 PM 91.4 °F 100.1 °F 73.4 °F 55% 29.92 in - North - - N/A   Unknown
4:30 PM 89.6 °F 98.2 °F 73.4 °F 59% 29.89 in - North - - N/A   Partly Cloudy
5:30 PM 87.8 °F 95.6 °F 73.4 °F 62% 29.92 in - North - - N/A   Partly Cloudy
6:30 PM 86.0 °F 95.1 °F 75.2 °F 70% 29.92 in - North - - N/A   Partly Cloudy
7:30 PM 85 °F - 75 °F 65% 29.93 in 6 mi Calm Calm - -   Clear
8:30 PM 82.4 °F 89.5 °F 75.2 °F 79% 29.92 in - North - - N/A   Clear
9:30 PM 80.6 °F 86.2 °F 75.2 °F 84% 29.92 in - North - - N/A   Clear
10:30 PM 80.6 °F 86.2 °F 75.2 °F 84% 29.95 in - North - - N/A   Clear